星链-1930 (STARLINK-1930 )

导读 | 豆包AI

STARLINK-1930是美国SpaceX公司星链(Starlink)星座的卫星,于2020年10月24日发射入轨,属于星链星座早期部署的卫星之一。星链星座旨在为全球提供高速卫星互联网接入服务,重点覆盖传统网络难以抵达的偏远与 underserved 区域。该卫星运行在近地轨道,与数千颗同星座卫星协同组网,为全球数百万用户提供稳定的互联网服务,也为后续星链星座扩展与技术迭代积累了关键的运行数据,支撑SpaceX持续优化低轨卫星通信系统性能。

基本信息
目录编号:
46789
目录名称:
STARLINK-1930
国际标识:
2020-074BC
轨道中心:
EARTH
卫星名称:
星链-1930
卫星全名:
星链-1930 (STARLINK-1930 )
卫星状态:
已陨落 最后检测时间 2025-02-04
发射日期:
2020-10-24 UTC
国别 :
美国 (US)
星等 :
--
轨道信息
数据来源 国际轨道数据
星历时间: 2025-02-04T11:24:21+0800
轨道信息已过期450天
半长轴: 6558.562km
偏心率: 0.0008819
轨道倾角: 53.019°
近地点辐角 259.743°
升交点赤经 273.679°
平近点角 148.439°
近地点: 174.643km
远地点: 186.211km
周期: 88.099分钟
每日圈数: 16.345187
详细信息
固有亮度:
5
最大亮度:
2.5
卫星平台:
Starlink V1.0
覆盖范围:
全球
运营商:
太空探索技术公司
运营商所在国:
美国
制造商(研发单位):
太空探索技术公司
制造商所在国:
美国
使用方式:
暂无
卫星简介
星链(Starlink)计划是由太空探索技术公司(SpaceX)提出的一个巨型低轨卫星互联网星座项目,计划在2019年至2024年间在太空搭建由约1.2万颗卫星组成的“星链”网络,其中1584颗将部署在地球上空550千米处的近地轨道,并从2020年开始工作。该卫星仍在工作。